Regional Weather Roundup
Issued by NWS

Home | Current Version | Previous Version | Text Only | Print | Product List | Glossary Off
Versions: 1 2 3 4 5 6 7 8 9 10 11 12 13 14 15 16 17 18 19 20 21 22 23 24 25 26 27 28 29 30 31 32 33 34 35 36 37 38 39 40 41 42 43 44 45 46 47 48 49 50

242
ASUS43 KFSD 210310
RWRSD

WEATHER ROUNDUP FOR SOUTH DAKOTA
NATIONAL WEATHER SERVICE SIOUX FALLS SD
900 PM CST FRI JAN 20 2017

NOTE: "FAIR" INDICATES FEW OR NO CLOUDS BELOW 12,000 FEET WITH NO
SIGNIFICANT WEATHER AND/OR OBSTRUCTIONS TO VISIBILITY.


SDZ001>005-009-010-012>017-210400-
NORTHWEST AND NORTH CENTRAL SOUTH DAKOTA

CITY           SKY/WX    TMP DP  RH WIND       PRES   REMARKS
BUFFALO          N/A     36  31  82 NW17      29.27S
FAITH            N/A     21  21 100 NW8       29.31S WCI  11
MOBRIDGE       CLOUDY    25  22  88 SE8       29.29S FOG     WCI  16
$$

SDZ012>016-024>037-041>051-057-063-072>074-210400-
SOUTHWEST AND SOUTH CENTRAL SOUTH DAKOTA

CITY           SKY/WX    TMP DP  RH WIND       PRES   REMARKS
RAPID CTY ARPT CLOUDY    36  31  82 NW14      29.34S
PIERRE         FOG       22  20  92 SW6       29.33S VSB 1/2 WCI  14
CUSTER         LGT SNOW  31  28  89 SW5       29.34R FOG     WCI  26
ELLSWORTH AFB  CLOUDY    36  32  87 NW17      29.33S
PHILIP         CLOUDY    27  25  92 NW5       29.34S WCI  22
PINE RIDGE     CLOUDY    36  34  92 W6        29.37R
SPEARFISH      LGT RAIN  34  32  93 W12       29.37S WCI  25
WINNER         CLOUDY    33  29  85 W3        29.33F
$$

SDZ004>011-016>023-039-040-210400-
NORTHEAST SOUTH DAKOTA

CITY           SKY/WX    TMP DP  RH WIND       PRES   REMARKS
ABERDEEN       CLOUDY    33  30  88 S3        29.36S FOG
WATERTOWN      FOG       35  35 100 SE13      29.38F VSB 1/4 WCI  26
BROOKINGS      CLOUDY    36  36 100 SE16      29.40S FOG
SISSETON         N/A     35  35 100 S17       29.41F WCI  25
$$

SDZ017-020-022-023-036>040-048>070-210400-
SOUTHEAST SOUTH DAKOTA

CITY           SKY/WX    TMP DP  RH WIND       PRES   REMARKS
SIOUX FALLS    FOG       39  39 100 S10       29.43S VSB 1
HURON          CLOUDY    38  38 100 S14G23    29.35S
CHAMBERLAIN    CLEAR     30  29  97 E5        29.35S WCI  25
MITCHELL       CLOUDY    40  39  97 S14       29.38S
YANKTON        CLOUDY    39  37  93 E5        29.41S VSB 3/4
$$

ABBREVIATIONS USED IN REMARKS
   TC - TEMPERATURE IN CELSIUS
  WCI - WIND CHILL INDEX
   HX - HEAT INDEX
  VSB - VISIBILITY





USA.gov is the U.S. government's official web portal to all federal, state and local government web resources and services.